Year,Month,Day,Hour,Minute,Value (Times are PST for temperature in C)
2018,05,25,00,00,14.20
2018,05,25,00,01,14.20
2018,05,25,00,02,14.20
2018,05,25,00,03,14.20
2018,05,25,00,04,14.20
2018,05,25,00,05,14.20
2018,05,25,00,06,14.10
2018,05,25,00,07,14.10
2018,05,25,00,08,14.10
2018,05,25,00,09,14.10
2018,05,25,00,10,14.00
2018,05,25,00,11,14.00
2018,05,25,00,12,14.00
2018,05,25,00,13,14.00
2018,05,25,00,14,13.90
2018,05,25,00,15,13.90
2018,05,25,00,16,13.90
2018,05,25,00,17,13.90
2018,05,25,00,18,13.90
2018,05,25,00,19,13.90
2018,05,25,00,20,13.90
2018,05,25,00,21,13.90
2018,05,25,00,22,13.80
2018,05,25,00,23,13.90
2018,05,25,00,24,13.80
2018,05,25,00,25,13.80
2018,05,25,00,26,13.80
2018,05,25,00,27,13.80
2018,05,25,00,28,13.80
2018,05,25,00,29,13.80
2018,05,25,00,30,13.80
2018,05,25,00,31,13.80
2018,05,25,00,32,13.80
2018,05,25,00,33,13.80
2018,05,25,00,34,13.80
2018,05,25,00,35,13.80
2018,05,25,00,36,13.80
2018,05,25,00,37,13.80
2018,05,25,00,38,13.80
2018,05,25,00,39,13.80
2018,05,25,00,40,13.80
2018,05,25,00,41,13.80
2018,05,25,00,42,13.80
2018,05,25,00,43,13.80
2018,05,25,00,44,13.80
2018,05,25,00,45,13.70
2018,05,25,00,46,13.70
2018,05,25,00,47,13.70
2018,05,25,00,48,13.70
2018,05,25,00,49,13.70
2018,05,25,00,50,13.70
2018,05,25,00,51,13.70
2018,05,25,00,52,13.70
2018,05,25,00,53,13.70
2018,05,25,00,54,13.70
2018,05,25,00,55,13.70
2018,05,25,00,56,13.70
2018,05,25,00,57,13.70
2018,05,25,00,58,13.70
2018,05,25,00,59,13.70
2018,05,25,01,00,13.70
2018,05,25,01,01,13.70
2018,05,25,01,02,13.70
2018,05,25,01,03,13.70
2018,05,25,01,04,13.60
2018,05,25,01,05,13.60
2018,05,25,01,06,13.60
2018,05,25,01,07,13.60
2018,05,25,01,08,13.60
2018,05,25,01,09,13.60
2018,05,25,01,10,13.60
2018,05,25,01,11,13.60
2018,05,25,01,12,13.60
2018,05,25,01,13,13.60
2018,05,25,01,14,13.60
2018,05,25,01,15,13.60
2018,05,25,01,16,13.60
2018,05,25,01,17,13.60
2018,05,25,01,18,13.60
2018,05,25,01,19,13.60
2018,05,25,01,20,13.60
2018,05,25,01,21,13.50
2018,05,25,01,22,13.50
2018,05,25,01,23,13.50
2018,05,25,01,24,13.50
2018,05,25,01,25,13.50
2018,05,25,01,26,13.50
2018,05,25,01,27,13.50
2018,05,25,01,28,13.50
2018,05,25,01,29,13.50
2018,05,25,01,30,13.50
2018,05,25,01,31,13.40
2018,05,25,01,32,13.40
2018,05,25,01,33,13.40
2018,05,25,01,34,13.40
2018,05,25,01,35,13.40
2018,05,25,01,36,13.40
2018,05,25,01,37,13.40
2018,05,25,01,38,13.40
2018,05,25,01,39,13.40
2018,05,25,01,40,13.40
2018,05,25,01,41,13.40
2018,05,25,01,42,13.40
2018,05,25,01,43,13.40
2018,05,25,01,44,13.30
2018,05,25,01,45,13.30
2018,05,25,01,46,13.30
2018,05,25,01,47,13.30
2018,05,25,01,48,13.30
2018,05,25,01,49,13.30
2018,05,25,01,50,13.30
2018,05,25,01,51,13.30
2018,05,25,01,52,13.30
2018,05,25,01,53,13.30
2018,05,25,01,54,13.20
2018,05,25,01,55,13.20
2018,05,25,01,56,13.20
2018,05,25,01,57,13.20
2018,05,25,01,58,13.20
2018,05,25,01,59,13.20
2018,05,25,02,00,13.20
2018,05,25,02,01,13.20
2018,05,25,02,02,13.20
2018,05,25,02,03,13.20
2018,05,25,02,04,13.20
2018,05,25,02,05,13.20
2018,05,25,02,06,13.20
2018,05,25,02,07,13.20
2018,05,25,02,08,13.20
2018,05,25,02,09,13.10
2018,05,25,02,10,13.10
2018,05,25,02,11,13.10
2018,05,25,02,12,13.10
2018,05,25,02,13,13.10
2018,05,25,02,14,13.10
2018,05,25,02,15,13.10
2018,05,25,02,16,13.10
2018,05,25,02,17,13.10
2018,05,25,02,18,13.10
2018,05,25,02,19,13.10
2018,05,25,02,20,13.10
2018,05,25,02,21,13.10
2018,05,25,02,22,13.10
2018,05,25,02,23,13.10
2018,05,25,02,24,13.10
2018,05,25,02,25,13.00
2018,05,25,02,26,13.00
2018,05,25,02,27,13.00
2018,05,25,02,28,13.00
2018,05,25,02,29,13.00
2018,05,25,02,30,13.00
2018,05,25,02,31,13.00
2018,05,25,02,32,13.00
2018,05,25,02,33,13.00
2018,05,25,02,34,13.00
2018,05,25,02,35,13.00
2018,05,25,02,36,13.00
2018,05,25,02,37,13.00
2018,05,25,02,38,12.90
2018,05,25,02,39,12.90
2018,05,25,02,40,12.90
2018,05,25,02,41,12.90
2018,05,25,02,42,12.90
2018,05,25,02,43,12.90
2018,05,25,02,44,12.90
2018,05,25,02,45,12.90
2018,05,25,02,46,12.90
2018,05,25,02,47,12.90
2018,05,25,02,48,12.90
2018,05,25,02,49,12.90
2018,05,25,02,50,12.90
2018,05,25,02,51,12.90
2018,05,25,02,52,12.90
2018,05,25,02,53,12.90
2018,05,25,02,54,12.90
2018,05,25,02,55,12.90
2018,05,25,02,56,12.90
2018,05,25,02,57,12.90
2018,05,25,02,58,12.90
2018,05,25,02,59,12.90
2018,05,25,03,00,12.80
2018,05,25,03,01,12.80
2018,05,25,03,02,12.80
2018,05,25,03,03,12.80
2018,05,25,03,04,12.80
2018,05,25,03,05,12.80
2018,05,25,03,06,12.80
2018,05,25,03,07,12.80
2018,05,25,03,08,12.80
2018,05,25,03,09,12.80
2018,05,25,03,10,12.80
2018,05,25,03,11,12.80
2018,05,25,03,12,12.80
2018,05,25,03,13,12.80
2018,05,25,03,14,12.80
2018,05,25,03,15,12.80
2018,05,25,03,16,12.80
2018,05,25,03,17,12.70
2018,05,25,03,18,12.70
2018,05,25,03,19,12.70
2018,05,25,03,20,12.70
2018,05,25,03,21,12.70
2018,05,25,03,22,12.70
2018,05,25,03,23,12.60
2018,05,25,03,24,12.60
2018,05,25,03,25,12.60
2018,05,25,03,26,12.60
2018,05,25,03,27,12.60
2018,05,25,03,28,12.60
2018,05,25,03,29,12.60
2018,05,25,03,30,12.60
2018,05,25,03,31,12.60
2018,05,25,03,32,12.60
2018,05,25,03,33,12.60
2018,05,25,03,34,12.60
2018,05,25,03,35,12.60
2018,05,25,03,36,12.60
2018,05,25,03,37,12.60
2018,05,25,03,38,12.60
2018,05,25,03,39,12.60
2018,05,25,03,40,12.60
2018,05,25,03,41,12.60
2018,05,25,03,42,12.60
2018,05,25,03,43,12.60
2018,05,25,03,44,12.60
2018,05,25,03,45,12.50
2018,05,25,03,46,12.50
2018,05,25,03,47,12.50
2018,05,25,03,48,12.50
2018,05,25,03,49,12.50
2018,05,25,03,50,12.50
2018,05,25,03,51,12.50
2018,05,25,03,52,12.50
2018,05,25,03,53,12.50
2018,05,25,03,54,12.50
2018,05,25,03,55,12.50
2018,05,25,03,56,12.50
2018,05,25,03,57,12.40
2018,05,25,03,58,12.40
2018,05,25,03,59,12.40
2018,05,25,04,00,12.40
2018,05,25,04,01,12.40
2018,05,25,04,02,12.40
2018,05,25,04,03,12.40
2018,05,25,04,04,12.40
2018,05,25,04,05,12.40
2018,05,25,04,06,12.30
2018,05,25,04,07,12.30
2018,05,25,04,08,12.30
2018,05,25,04,09,12.30
2018,05,25,04,10,12.30
2018,05,25,04,11,12.30
2018,05,25,04,12,12.30
2018,05,25,04,13,12.30
2018,05,25,04,14,12.30
2018,05,25,04,15,12.30
2018,05,25,04,16,12.20
2018,05,25,04,17,12.20
2018,05,25,04,18,12.20
2018,05,25,04,19,12.20
2018,05,25,04,20,12.20
2018,05,25,04,21,12.20
2018,05,25,04,22,12.20
2018,05,25,04,23,12.20
2018,05,25,04,24,12.10
2018,05,25,04,25,12.10
2018,05,25,04,26,12.10
2018,05,25,04,27,12.10
2018,05,25,04,28,12.10
2018,05,25,04,29,12.10
2018,05,25,04,30,12.10
2018,05,25,04,31,12.10
2018,05,25,04,32,12.00
2018,05,25,04,33,12.00
2018,05,25,04,34,12.00
2018,05,25,04,35,12.00
2018,05,25,04,36,12.00
2018,05,25,04,37,11.90
2018,05,25,04,38,11.90
2018,05,25,04,39,11.90
2018,05,25,04,40,11.90
2018,05,25,04,41,11.90
2018,05,25,04,42,11.90
2018,05,25,04,43,11.90
2018,05,25,04,44,11.90
2018,05,25,04,45,11.80
2018,05,25,04,46,11.80
2018,05,25,04,47,11.80
2018,05,25,04,48,11.80
2018,05,25,04,49,11.80
2018,05,25,04,50,11.80
2018,05,25,04,51,11.80
2018,05,25,04,52,11.80
2018,05,25,04,53,11.80
2018,05,25,04,54,11.80
2018,05,25,04,55,11.80
2018,05,25,04,56,11.80
2018,05,25,04,57,11.70
2018,05,25,04,58,11.70
2018,05,25,04,59,11.70
2018,05,25,05,00,11.70
2018,05,25,05,01,11.70
2018,05,25,05,02,11.70
2018,05,25,05,03,11.70
2018,05,25,05,04,11.70
2018,05,25,05,05,11.60
2018,05,25,05,06,11.60
2018,05,25,05,07,11.60
2018,05,25,05,08,11.60
2018,05,25,05,09,11.60
2018,05,25,05,10,11.60
2018,05,25,05,11,11.60
2018,05,25,05,12,11.50
2018,05,25,05,13,11.50
2018,05,25,05,14,11.50
2018,05,25,05,15,11.50
2018,05,25,05,16,11.50
2018,05,25,05,17,11.50
2018,05,25,05,18,11.50
2018,05,25,05,19,11.50
2018,05,25,05,20,11.50
2018,05,25,05,21,11.50
2018,05,25,05,22,11.40
2018,05,25,05,23,11.50
2018,05,25,05,24,11.40
2018,05,25,05,25,11.40
2018,05,25,05,26,11.40
2018,05,25,05,27,11.40
2018,05,25,05,28,11.40
2018,05,25,05,29,11.40
2018,05,25,05,30,11.40
2018,05,25,05,31,11.40
2018,05,25,05,32,11.40
2018,05,25,05,33,11.40
2018,05,25,05,34,11.40
2018,05,25,05,35,11.30
2018,05,25,05,36,11.30
2018,05,25,05,37,11.30
2018,05,25,05,38,11.30
2018,05,25,05,39,11.30
2018,05,25,05,40,11.30
2018,05,25,05,41,11.30
2018,05,25,05,42,11.30
2018,05,25,05,43,11.30
2018,05,25,05,44,11.30
2018,05,25,05,45,11.30
2018,05,25,05,46,11.30
2018,05,25,05,47,11.30
2018,05,25,05,48,11.30
2018,05,25,05,49,11.30
2018,05,25,05,50,11.30
2018,05,25,05,51,11.30
2018,05,25,05,52,11.30
2018,05,25,05,53,11.30
2018,05,25,05,54,11.30
2018,05,25,05,55,11.30
2018,05,25,05,56,11.30
2018,05,25,05,57,11.30
2018,05,25,05,58,11.30
2018,05,25,05,59,11.30
2018,05,25,06,00,11.30
2018,05,25,06,01,11.30
2018,05,25,06,02,11.30
2018,05,25,06,03,11.30
2018,05,25,06,04,11.30
2018,05,25,06,05,11.30
2018,05,25,06,06,11.30
2018,05,25,06,07,11.30
2018,05,25,06,08,11.30
2018,05,25,06,09,11.40
2018,05,25,06,10,11.40
2018,05,25,06,11,11.40
2018,05,25,06,12,11.40
2018,05,25,06,13,11.40
2018,05,25,06,14,11.40
2018,05,25,06,15,11.40
2018,05,25,06,16,11.40
2018,05,25,06,17,11.40
2018,05,25,06,18,11.40
2018,05,25,06,19,11.40
2018,05,25,06,20,11.40
2018,05,25,06,21,11.40
2018,05,25,06,22,11.40
2018,05,25,06,23,11.40
2018,05,25,06,24,11.40
2018,05,25,06,25,11.40
2018,05,25,06,26,11.40
2018,05,25,06,27,11.40
2018,05,25,06,28,11.40
2018,05,25,06,29,11.40
2018,05,25,06,30,11.40
2018,05,25,06,31,11.50
2018,05,25,06,32,11.40
2018,05,25,06,33,11.40
2018,05,25,06,34,11.40
2018,05,25,06,35,11.40
2018,05,25,06,36,11.40
2018,05,25,06,37,11.40
2018,05,25,06,38,11.40
2018,05,25,06,39,11.40
2018,05,25,06,40,11.40
2018,05,25,06,41,11.40
2018,05,25,06,42,11.50
2018,05,25,06,43,11.50
2018,05,25,06,44,11.50
2018,05,25,06,45,11.50
2018,05,25,06,46,11.40
2018,05,25,06,47,11.40
2018,05,25,06,48,11.40
2018,05,25,06,49,11.40
2018,05,25,06,50,11.40
2018,05,25,06,51,11.40
2018,05,25,06,52,11.40
2018,05,25,06,53,11.40
2018,05,25,06,54,11.40
2018,05,25,06,55,11.40
2018,05,25,06,56,11.40
2018,05,25,06,57,11.40
2018,05,25,06,58,11.40
2018,05,25,06,59,11.40
2018,05,25,07,00,11.40
2018,05,25,07,01,11.50
2018,05,25,07,02,11.50
2018,05,25,07,03,11.50
2018,05,25,07,04,11.50
2018,05,25,07,05,11.60
2018,05,25,07,06,11.60
2018,05,25,07,07,11.60
2018,05,25,07,08,11.60
2018,05,25,07,09,11.60
2018,05,25,07,10,11.70
2018,05,25,07,11,11.70
2018,05,25,07,12,11.70
2018,05,25,07,13,11.70
2018,05,25,07,14,11.70
2018,05,25,07,15,11.70
2018,05,25,07,16,11.70
2018,05,25,07,17,11.70
2018,05,25,07,18,11.70
2018,05,25,07,19,11.70
2018,05,25,07,20,11.70
2018,05,25,07,21,11.80
2018,05,25,07,22,11.80
2018,05,25,07,23,11.80
2018,05,25,07,24,11.80
2018,05,25,07,25,11.80
2018,05,25,07,26,11.80
2018,05,25,07,27,11.80
2018,05,25,07,28,11.80
2018,05,25,07,29,11.80
2018,05,25,07,30,11.90
2018,05,25,07,31,11.90
2018,05,25,07,32,11.90
2018,05,25,07,33,11.90
2018,05,25,07,34,11.90
2018,05,25,07,35,12.00
2018,05,25,07,36,12.00
2018,05,25,07,37,12.00
2018,05,25,07,38,12.00
2018,05,25,07,39,12.10
2018,05,25,07,40,12.10
2018,05,25,07,41,12.10
2018,05,25,07,42,12.10
2018,05,25,07,43,12.10
2018,05,25,07,44,12.20
2018,05,25,07,45,12.20
2018,05,25,07,46,12.20
2018,05,25,07,47,12.20
2018,05,25,07,48,12.20
2018,05,25,07,49,12.20
2018,05,25,07,50,12.20
2018,05,25,07,51,12.30
2018,05,25,07,52,12.30
2018,05,25,07,53,12.30
2018,05,25,07,54,12.30
2018,05,25,07,55,12.30
2018,05,25,07,56,12.30
2018,05,25,07,57,12.30
2018,05,25,07,58,12.30
2018,05,25,07,59,12.30
2018,05,25,08,00,12.40
2018,05,25,08,01,12.40
2018,05,25,08,02,12.40
2018,05,25,08,03,12.40
2018,05,25,08,04,12.40
2018,05,25,08,05,12.40
2018,05,25,08,06,12.50
2018,05,25,08,07,12.50
2018,05,25,08,08,12.50
2018,05,25,08,09,12.50
2018,05,25,08,10,12.60
2018,05,25,08,11,12.60
2018,05,25,08,12,12.60
2018,05,25,08,13,12.60
2018,05,25,08,14,12.60
2018,05,25,08,15,12.60
2018,05,25,08,16,12.60
2018,05,25,08,17,12.60
2018,05,25,08,18,12.60
2018,05,25,08,19,12.60
2018,05,25,08,20,12.70
2018,05,25,08,21,12.70
2018,05,25,08,22,12.70
2018,05,25,08,23,12.80
2018,05,25,08,24,12.80
2018,05,25,08,25,12.80
2018,05,25,08,26,12.80
2018,05,25,08,27,12.90
2018,05,25,08,28,12.90
2018,05,25,08,29,13.00
2018,05,25,08,30,13.00
2018,05,25,08,31,13.10
2018,05,25,08,32,13.10
2018,05,25,08,33,13.10
2018,05,25,08,34,13.10
2018,05,25,08,35,13.20
2018,05,25,08,36,13.20
2018,05,25,08,37,13.20
2018,05,25,08,38,13.20
2018,05,25,08,39,13.30
2018,05,25,08,40,13.30
2018,05,25,08,41,13.30
2018,05,25,08,42,13.30
2018,05,25,08,43,13.20
2018,05,25,08,44,13.20
2018,05,25,08,45,13.20
2018,05,25,08,46,13.10
2018,05,25,08,47,13.10
2018,05,25,08,48,13.10
2018,05,25,08,49,13.10
2018,05,25,08,50,13.10
2018,05,25,08,51,13.10
2018,05,25,08,52,13.10
2018,05,25,08,53,13.10
2018,05,25,08,54,13.20
2018,05,25,08,55,13.20
2018,05,25,08,56,13.30
2018,05,25,08,57,13.30
2018,05,25,08,58,13.30
2018,05,25,08,59,13.40
2018,05,25,09,00,13.50
2018,05,25,09,01,13.50
2018,05,25,09,02,13.60
2018,05,25,09,03,13.70
2018,05,25,09,04,13.70
2018,05,25,09,05,13.70
2018,05,25,09,06,13.80
2018,05,25,09,07,13.80
2018,05,25,09,08,13.80
2018,05,25,09,09,13.80
2018,05,25,09,10,13.80
2018,05,25,09,11,13.80
2018,05,25,09,12,13.80
2018,05,25,09,13,13.80
2018,05,25,09,14,13.80
2018,05,25,09,15,13.90
2018,05,25,09,16,13.90
2018,05,25,09,17,13.90
2018,05,25,09,18,13.90
2018,05,25,09,19,14.00
2018,05,25,09,20,13.90
2018,05,25,09,21,13.90
2018,05,25,09,22,13.90
2018,05,25,09,23,13.90
2018,05,25,09,24,13.90
2018,05,25,09,25,13.90
2018,05,25,09,26,13.80
2018,05,25,09,27,13.80
2018,05,25,09,28,13.80
2018,05,25,09,29,13.90
2018,05,25,09,30,13.90
2018,05,25,09,31,13.90
2018,05,25,09,32,13.90
2018,05,25,09,33,13.80
2018,05,25,09,34,13.90
2018,05,25,09,35,13.90
2018,05,25,09,36,13.90
2018,05,25,09,37,14.00
2018,05,25,09,38,14.00
2018,05,25,09,39,14.10
2018,05,25,09,40,14.10
2018,05,25,09,41,14.10
2018,05,25,09,42,14.00
2018,05,25,09,43,13.90
2018,05,25,09,44,13.90
2018,05,25,09,45,13.90
2018,05,25,09,46,13.90
2018,05,25,09,47,13.90
2018,05,25,09,48,13.90
2018,05,25,09,49,13.90
2018,05,25,09,50,14.00
2018,05,25,09,51,14.10
2018,05,25,09,52,14.20
2018,05,25,09,53,14.20
2018,05,25,09,54,14.30
2018,05,25,09,55,14.30
2018,05,25,09,56,14.40
2018,05,25,09,57,14.40
2018,05,25,09,58,14.50
2018,05,25,09,59,14.50
2018,05,25,10,00,14.60
2018,05,25,10,01,14.60
2018,05,25,10,02,14.70
2018,05,25,10,03,14.70
2018,05,25,10,04,14.60
2018,05,25,10,05,14.60
2018,05,25,10,06,14.60
2018,05,25,10,07,14.60
2018,05,25,10,08,14.70
2018,05,25,10,09,14.70
2018,05,25,10,10,14.70
2018,05,25,10,11,14.70
2018,05,25,10,12,14.80
2018,05,25,10,13,14.70
2018,05,25,10,14,14.60
2018,05,25,10,15,14.50
2018,05,25,10,16,14.50
2018,05,25,10,17,14.50
2018,05,25,10,18,14.50
2018,05,25,10,19,14.50
2018,05,25,10,20,14.50
2018,05,25,10,21,14.60
2018,05,25,10,22,14.60
2018,05,25,10,23,14.60
2018,05,25,10,24,14.50
2018,05,25,10,25,14.40
2018,05,25,10,26,14.40
2018,05,25,10,27,14.30
2018,05,25,10,28,14.30
2018,05,25,10,29,14.20
2018,05,25,10,30,14.20
2018,05,25,10,31,14.10
2018,05,25,10,32,14.10
2018,05,25,10,33,14.20
2018,05,25,10,34,14.20
2018,05,25,10,35,14.30
2018,05,25,10,36,14.20
2018,05,25,10,37,14.30
2018,05,25,10,38,14.30
2018,05,25,10,39,14.30
2018,05,25,10,40,14.40
2018,05,25,10,41,14.40
2018,05,25,10,42,14.40
2018,05,25,10,43,14.40
2018,05,25,10,44,14.30
2018,05,25,10,45,14.40
2018,05,25,10,46,14.40
2018,05,25,10,47,14.40
2018,05,25,10,48,14.40
2018,05,25,10,49,14.40
2018,05,25,10,50,14.50
2018,05,25,10,51,14.50
2018,05,25,10,52,14.60
2018,05,25,10,53,14.70
2018,05,25,10,54,14.80
2018,05,25,10,55,14.80
2018,05,25,10,56,14.80
2018,05,25,10,57,14.80
2018,05,25,10,58,14.90
2018,05,25,10,59,14.90
2018,05,25,11,00,14.80
2018,05,25,11,01,14.80
2018,05,25,11,02,14.80
2018,05,25,11,03,14.70
2018,05,25,11,04,14.70
2018,05,25,11,05,14.70
2018,05,25,11,06,14.60
2018,05,25,11,07,14.60
2018,05,25,11,08,14.70
2018,05,25,11,09,14.70
2018,05,25,11,10,14.80
2018,05,25,11,11,14.80
2018,05,25,11,12,14.80
2018,05,25,11,13,14.70
2018,05,25,11,14,14.70
2018,05,25,11,15,14.70
2018,05,25,11,16,14.70
2018,05,25,11,17,14.70
2018,05,25,11,18,14.70
2018,05,25,11,19,14.80
2018,05,25,11,20,14.80
2018,05,25,11,21,14.80
2018,05,25,11,22,14.80
2018,05,25,11,23,14.80
2018,05,25,11,24,14.80
2018,05,25,11,25,14.80
2018,05,25,11,26,14.80
2018,05,25,11,27,14.80
2018,05,25,11,28,14.90
2018,05,25,11,29,14.90
2018,05,25,11,30,14.90
2018,05,25,11,31,14.90
2018,05,25,11,32,15.00
2018,05,25,11,33,15.00
2018,05,25,11,34,15.10
2018,05,25,11,35,15.10
2018,05,25,11,36,15.10
2018,05,25,11,37,15.10
2018,05,25,11,38,15.20
2018,05,25,11,39,15.20
2018,05,25,11,40,15.20
2018,05,25,11,41,15.20
2018,05,25,11,42,15.30
2018,05,25,11,43,15.30
2018,05,25,11,44,15.40
2018,05,25,11,45,15.40
2018,05,25,11,46,15.40
2018,05,25,11,47,15.40
2018,05,25,11,48,15.40
2018,05,25,11,49,15.40
2018,05,25,11,50,15.40
2018,05,25,11,51,15.50
2018,05,25,11,52,15.50
2018,05,25,11,53,15.50
2018,05,25,11,54,15.50
2018,05,25,11,55,15.40
2018,05,25,11,56,15.40
2018,05,25,11,57,15.30
2018,05,25,11,58,15.30
2018,05,25,11,59,15.20
2018,05,25,12,00,15.20
2018,05,25,12,01,15.20
2018,05,25,12,02,15.20
2018,05,25,12,03,15.20
2018,05,25,12,04,15.20
2018,05,25,12,05,15.20
2018,05,25,12,06,15.20
2018,05,25,12,07,15.10
2018,05,25,12,08,15.10
2018,05,25,12,09,15.10
2018,05,25,12,10,15.10
2018,05,25,12,11,15.10
2018,05,25,12,12,15.10
2018,05,25,12,13,15.20
2018,05,25,12,14,15.20
2018,05,25,12,15,15.30
2018,05,25,12,16,15.30
2018,05,25,12,17,15.30
2018,05,25,12,18,15.30
2018,05,25,12,19,15.30
2018,05,25,12,20,15.30
2018,05,25,12,21,15.30
2018,05,25,12,22,15.30
2018,05,25,12,23,15.40
2018,05,25,12,24,15.40
2018,05,25,12,25,15.40
2018,05,25,12,26,15.40
2018,05,25,12,27,15.40
2018,05,25,12,28,15.50
2018,05,25,12,29,15.40
2018,05,25,12,30,15.40
2018,05,25,12,31,15.50
2018,05,25,12,32,15.50
2018,05,25,12,33,15.60
2018,05,25,12,34,15.60
2018,05,25,12,35,15.70
2018,05,25,12,36,15.70
2018,05,25,12,37,15.70
2018,05,25,12,38,15.70
2018,05,25,12,39,15.80
2018,05,25,12,40,15.80
2018,05,25,12,41,15.80
2018,05,25,12,42,15.80
2018,05,25,12,43,15.80
2018,05,25,12,44,15.80
2018,05,25,12,45,15.70
2018,05,25,12,46,15.70
2018,05,25,12,47,15.70
2018,05,25,12,48,15.70
2018,05,25,12,49,15.70
2018,05,25,12,50,15.60
2018,05,25,12,51,15.60
2018,05,25,12,52,15.60
2018,05,25,12,53,15.60
2018,05,25,12,54,15.50
2018,05,25,12,55,15.50
2018,05,25,12,56,15.50
2018,05,25,12,57,15.50
2018,05,25,12,58,15.50
2018,05,25,12,59,15.60
2018,05,25,13,00,15.60
2018,05,25,13,01,15.60
2018,05,25,13,02,15.70
2018,05,25,13,03,15.70
2018,05,25,13,04,15.80
2018,05,25,13,05,15.80
2018,05,25,13,06,15.80
2018,05,25,13,07,15.80
2018,05,25,13,08,15.80
2018,05,25,13,09,15.90
2018,05,25,13,10,15.90
2018,05,25,13,11,15.90
2018,05,25,13,12,15.90
2018,05,25,13,13,16.00
2018,05,25,13,14,16.00
2018,05,25,13,15,16.10
2018,05,25,13,16,16.10
2018,05,25,13,17,16.10
2018,05,25,13,18,16.20
2018,05,25,13,19,16.20
2018,05,25,13,20,16.30
2018,05,25,13,21,16.30
2018,05,25,13,22,16.30
2018,05,25,13,23,16.30
2018,05,25,13,24,16.30
2018,05,25,13,25,16.30
2018,05,25,13,26,16.30
2018,05,25,13,27,16.20
2018,05,25,13,28,16.20
2018,05,25,13,29,16.20
2018,05,25,13,30,16.10
2018,05,25,13,31,16.10
2018,05,25,13,32,16.10
2018,05,25,13,33,16.00
2018,05,25,13,34,16.00
2018,05,25,13,35,16.00
2018,05,25,13,36,16.00
2018,05,25,13,37,16.00
2018,05,25,13,38,16.10
2018,05,25,13,39,16.10
2018,05,25,13,40,16.10
2018,05,25,13,41,16.10
2018,05,25,13,42,16.10
2018,05,25,13,43,16.10
2018,05,25,13,44,16.20
2018,05,25,13,45,16.10
2018,05,25,13,46,16.20
2018,05,25,13,47,16.20
2018,05,25,13,48,16.20
2018,05,25,13,49,16.20
2018,05,25,13,50,16.10
2018,05,25,13,51,16.10
2018,05,25,13,52,16.20
2018,05,25,13,53,16.10
2018,05,25,13,54,16.10
2018,05,25,13,55,16.00
2018,05,25,13,56,16.00
2018,05,25,13,57,16.00
2018,05,25,13,58,16.00
2018,05,25,13,59,16.00
2018,05,25,14,00,16.10
2018,05,25,14,01,16.10
2018,05,25,14,02,16.10
2018,05,25,14,03,16.10
2018,05,25,14,04,16.10
2018,05,25,14,05,16.10
2018,05,25,14,06,16.10
2018,05,25,14,07,16.10
2018,05,25,14,08,16.10
2018,05,25,14,09,16.10
2018,05,25,14,10,16.10
2018,05,25,14,11,16.20
2018,05,25,14,12,16.20
2018,05,25,14,13,16.20
2018,05,25,14,14,16.20
2018,05,25,14,15,16.20
2018,05,25,14,16,16.20
2018,05,25,14,17,16.20
2018,05,25,14,18,16.20
2018,05,25,14,19,16.20
2018,05,25,14,20,16.20
2018,05,25,14,21,16.20
2018,05,25,14,22,16.20
2018,05,25,14,23,16.20
2018,05,25,14,24,16.20
2018,05,25,14,25,16.20
2018,05,25,14,26,16.10
2018,05,25,14,27,16.10
2018,05,25,14,28,16.10
2018,05,25,14,29,16.20
2018,05,25,14,30,16.20
2018,05,25,14,31,16.20
2018,05,25,14,32,16.20
2018,05,25,14,33,16.20
2018,05,25,14,34,16.20
2018,05,25,14,35,16.20
2018,05,25,14,36,16.20
2018,05,25,14,37,16.20
2018,05,25,14,38,16.20
2018,05,25,14,39,16.20
2018,05,25,14,40,16.30
2018,05,25,14,41,16.30
2018,05,25,14,42,16.30
2018,05,25,14,43,16.30
2018,05,25,14,44,16.30
2018,05,25,14,45,16.30
2018,05,25,14,46,16.30
2018,05,25,14,47,16.30
2018,05,25,14,48,16.30
2018,05,25,14,49,16.30
2018,05,25,14,50,16.20
2018,05,25,14,51,16.20
2018,05,25,14,52,16.20
2018,05,25,14,53,16.20
2018,05,25,14,54,16.30
2018,05,25,14,55,16.30
2018,05,25,14,56,16.30
2018,05,25,14,57,16.40
2018,05,25,14,58,16.40
2018,05,25,14,59,16.40
2018,05,25,15,00,16.40
2018,05,25,15,01,16.40
2018,05,25,15,02,16.40
2018,05,25,15,03,16.40
2018,05,25,15,04,16.40
2018,05,25,15,05,16.50
2018,05,25,15,06,16.60
2018,05,25,15,07,16.60
2018,05,25,15,08,16.70
2018,05,25,15,09,16.70
2018,05,25,15,10,16.70
2018,05,25,15,11,16.70
2018,05,25,15,12,16.80
2018,05,25,15,13,16.80
2018,05,25,15,14,16.80
2018,05,25,15,15,16.80
2018,05,25,15,16,16.80
2018,05,25,15,17,16.80
2018,05,25,15,18,16.90
2018,05,25,15,19,16.90
2018,05,25,15,20,16.90
2018,05,25,15,21,16.90
2018,05,25,15,22,16.90
2018,05,25,15,23,16.90
2018,05,25,15,24,16.90
2018,05,25,15,25,16.90
2018,05,25,15,26,16.90
2018,05,25,15,27,16.90
2018,05,25,15,28,16.90
2018,05,25,15,29,16.90
2018,05,25,15,30,16.90
2018,05,25,15,31,16.90
2018,05,25,15,32,16.90
2018,05,25,15,33,17.00
2018,05,25,15,34,17.00
2018,05,25,15,35,17.00
2018,05,25,15,36,17.10
2018,05,25,15,37,17.10
2018,05,25,15,38,17.20
2018,05,25,15,39,17.20
2018,05,25,15,40,17.30
2018,05,25,15,41,17.30
2018,05,25,15,42,17.40
2018,05,25,15,43,17.40
2018,05,25,15,44,17.40
2018,05,25,15,45,17.50
2018,05,25,15,46,17.50
2018,05,25,15,47,17.60
2018,05,25,15,48,17.60
2018,05,25,15,49,17.60
2018,05,25,15,50,17.60
2018,05,25,15,51,17.60
2018,05,25,15,52,17.60
2018,05,25,15,53,17.70
2018,05,25,15,54,17.70
2018,05,25,15,55,17.70
2018,05,25,15,56,17.70
2018,05,25,15,57,17.70
2018,05,25,15,58,17.60
2018,05,25,15,59,17.60
2018,05,25,16,00,17.60
2018,05,25,16,01,17.60
2018,05,25,16,02,17.60
2018,05,25,16,03,17.60
2018,05,25,16,04,17.70
2018,05,25,16,05,17.60
2018,05,25,16,06,17.60
2018,05,25,16,07,17.50
2018,05,25,16,08,17.50
2018,05,25,16,09,17.50
2018,05,25,16,10,17.60
2018,05,25,16,11,17.60
2018,05,25,16,12,17.60
2018,05,25,16,13,17.60
2018,05,25,16,14,17.60
2018,05,25,16,15,17.70
2018,05,25,16,16,17.70
2018,05,25,16,17,17.70
2018,05,25,16,18,17.60
2018,05,25,16,19,17.60
2018,05,25,16,20,17.60
2018,05,25,16,21,17.70
2018,05,25,16,22,17.70
2018,05,25,16,23,17.70
2018,05,25,16,24,17.80
2018,05,25,16,25,17.80
2018,05,25,16,26,17.80
2018,05,25,16,27,17.80
2018,05,25,16,28,17.80
2018,05,25,16,29,17.80
2018,05,25,16,30,17.70
2018,05,25,16,31,17.70
2018,05,25,16,32,17.60
2018,05,25,16,33,17.50
2018,05,25,16,34,17.50
2018,05,25,16,35,17.40
2018,05,25,16,36,17.40
2018,05,25,16,37,17.40
2018,05,25,16,38,17.40
2018,05,25,16,39,17.50
2018,05,25,16,40,17.50
2018,05,25,16,41,17.50
2018,05,25,16,42,17.60
2018,05,25,16,43,17.60
2018,05,25,16,44,17.50
2018,05,25,16,45,17.50
2018,05,25,16,46,17.50
2018,05,25,16,47,17.50
2018,05,25,16,48,17.50
2018,05,25,16,49,17.40
2018,05,25,16,50,17.40
2018,05,25,16,51,17.40
2018,05,25,16,52,17.50
2018,05,25,16,53,17.50
2018,05,25,16,54,17.50
2018,05,25,16,55,17.60
2018,05,25,16,56,17.60
2018,05,25,16,57,17.60
2018,05,25,16,58,17.60
2018,05,25,16,59,17.60
2018,05,25,17,00,17.60
2018,05,25,17,01,17.60
2018,05,25,17,02,17.60
2018,05,25,17,03,17.60
2018,05,25,17,04,17.60
2018,05,25,17,05,17.60
2018,05,25,17,06,17.50
2018,05,25,17,07,17.50
2018,05,25,17,08,17.40
2018,05,25,17,09,17.40
2018,05,25,17,10,17.40
2018,05,25,17,11,17.40
2018,05,25,17,12,17.40
2018,05,25,17,13,17.40
2018,05,25,17,14,17.30
2018,05,25,17,15,17.30
2018,05,25,17,16,17.30
2018,05,25,17,17,17.30
2018,05,25,17,18,17.30
2018,05,25,17,19,17.30